CW2220 Weather Reports


Display with metric or nautical units.
time (UTC)temp
F
wind
direction
speed
MPH
gust
MPH
rain 1hr
in
rain 24hr
in
rain mn
in
humidity
%
barometer
mb
20260502200034 71 333 7.0 19.0 0.00 0.90 0.17 54 1017.0
20260502194541 72 338 7.0 20.0 0.00 1.97 0.17 55 1017.2
20260502193033 71 314 8.0 20.0 0.00 1.97 0.17 56 1017.2
20260502191535 70 340 11.0 20.0 0.00 1.97 0.17 55 1017.2
20260502190040 71 360 9.0 18.0 0.00 1.97 0.17 61 1017.4
20260502184548 70 9 11.0 23.0 0.00 2.52 0.17 61 1017.3
20260502183047 70 66 7.0 21.0 0.00 2.52 0.17 66 1017.4
20260502181538 70 24 7.0 16.0 0.00 2.52 0.17 68 1017.7
20260502163042 67 11 7.0 18.0 0.00 3.39 0.17 76 1018.4
20260502161534 66 350 9.0 15.0 0.00 3.39 0.17 77 1018.2
20260502151540 63 62 6.0 15.0 0.00 3.39 0.17 83 1018.0
20260502123030 55 34 6.0 15.0 0.00 3.39 0.17 92 1015.8
20260502121536 54 13 5.0 12.0 0.00 3.39 0.17 92 1015.7
20260502114547 54 32 4.0 9.0 0.00 3.39 0.17 91 1015.2
20260502113040 54 5 5.0 10.0 0.00 3.39 0.17 90 1015.0
20260502111536 54 325 6.0 13.0 0.00 3.39 0.17 90 1015.1
20260502110038 54 38 5.0 11.0 0.00 3.39 0.17 90 1015.0
20260502104541 54 5 5.0 15.0 0.00 3.39 0.17 91 1014.8
20260502103037 54 328 7.0 15.0 0.00 3.39 0.17 91 1014.8
20260502101558 54 318 5.0 15.0 0.00 3.39 0.17 92 1014.6
20260502070052 54 311 4.0 15.0 0.02 3.38 0.16 97 1013.6
20260502064534 54 5 7.0 14.0 0.04 3.37 0.15 97 1013.4
20260502063038 54 5 5.0 11.0 0.08 3.37 0.15 97 1013.9
20260502061530 54 40 6.0 10.0 0.14 3.37 0.15 97 1013.6
20260502060030 54 55 4.0 9.0 0.14 3.36 0.14 97 1013.9
20260502054534 55 38 3.0 13.0 0.11 3.33 0.11 97 1014.5
20260502053044 55 352 8.0 18.0 0.10 3.29 0.07 97 1013.5
20260502051534 55 351 6.0 12.0 0.08 3.23 0.01 97 1013.5
20260502050040 55 5 8.0 16.0 0.09 3.22 0.00 97 1013.0
20260502044536 56 355 8.0 15.0 0.09 3.21 3.21 96 1013.4
20260502043036 56 323 6.0 13.0 0.07 3.19 3.19 96 1013.5
20260502041535 56 14 8.0 16.0 0.04 3.15 3.15 96 1013.4
20260502040041 57 355 7.0 13.0 0.02 3.13 3.13 96 1013.6
20260502034536 56 316 6.0 18.0 0.01 3.12 3.12 96 1013.3
20260502033035 56 25 8.0 21.0 0.01 3.12 3.12 96 1013.0
20260502031537 56 11 9.0 19.0 0.00 3.11 3.11 96 1012.7
20260502030034 56 32 9.0 20.0 0.00 3.11 3.11 97 1012.7
20260502024535 57 26 7.0 19.0 0.00 3.11 3.11 97 1012.7
20260502023039 57 46 8.0 17.0 0.00 3.11 3.11 97 1012.2
20260502021536 58 37 6.0 12.0 0.00 3.11 3.11 97 1012.1
20260502020039 57 50 6.0 13.0 0.00 3.11 3.11 98 1011.9
20260502014530 57 54 7.0 20.0 0.00 3.11 3.11 98 1011.8
20260502013051 58 21 8.0 17.0 0.00 3.11 3.11 98 1011.3
20260502011535 58 99 5.0 12.0 0.00 3.11 3.11 98 1010.8
20260502010035 58 11 6.0 16.0 0.00 3.11 3.11 98 1009.9
20260502004537 58 340 7.0 17.0 0.02 3.11 3.11 98 1009.3
20260502003036 58 360 8.0 15.0 0.07 3.11 3.11 98 1007.9
20260502001545 58 49 9.0 15.0 0.13 3.11 3.11 98 1007.9
20260502000036 58 78 7.0 13.0 0.21 3.11 3.11 98 1009.1
20260501234538 58 76 4.0 12.0 0.21 3.09 3.09 98 1010.7
20260501233042 58 24 5.0 11.0 0.16 3.03 3.03 98 1011.2
20260501231535 58 55 7.0 13.0 0.11 2.97 2.97 98 1011.1
20260501230037 58 37 4.0 14.0 0.04 2.90 2.90 98 1011.2
20260501224533 58 35 8.0 18.0 0.02 2.88 2.88 98 1010.6
20260501223030 58 80 10.0 19.0 0.03 2.87 2.87 98 1009.6
20260501221533 59 9 7.0 17.0 0.08 2.86 2.86 98 1010.7
20260501220107 59 25 5.0 15.0 0.12 2.86 2.86 99 1010.8
20260501214538 59 57 7.0 13.0 0.17 2.86 2.86 99 1010.0
20260501213034 59 5 7.0 15.0 0.19 2.84 2.84 98 1010.1
20260501211531 60 43 6.0 15.0 0.20 2.78 2.78 98 1009.9
20260501210042 60 75 7.0 14.0 0.24 2.74 2.74 99 1009.7
20260501204540 60 42 9.0 18.0 0.43 2.69 2.69 98 1009.9
20260501203039 60 39 6.0 12.0 0.74 2.64 2.64 98 1010.3
20260501201540 61 21 4.0 14.0 0.83 2.57 2.57 98 1010.9